Terminal Aerodrome Forecast
Issued by NWS

Home | Current Version | Previous Version | Text Only | Print | Product List | Glossary On
Versions: 1 2 3 4 5 6 7 8 9 10 11 12 13 14 15 16 17 18 19 20 21
000
FTUS44 KLZK 211000 AAA
TAFBPK
TAF AMD
KBPK 211015Z 2110/2206 VRB03KT P6SM VCSH SCT250
      TEMPO 2110/2114 5SM SHRA BR
     FM211400 34006KT P6SM SCT050 SCT250
     FM220000 32003KT P6SM SKC=

USA.gov is the U.S. government's official web portal to all federal, state and local government web resources and services.